This demonstration page uses our WeatherBlox Daily Observations layout. Learn more.

Left ArrowRight Arrow

Hourly Observations for September 21, 2015

Temp ( °F °C ) Dew Point ( °F °C ) Humidity (%) Winds ( mph kmh ) Pressure ( in mb ) Visibility ( mi km ) Precip ( " mm )
12:53 am 00:53 Clear 69 20.6 51 10.6 53 53 Calm 29.81 1009 10 16 0.00 0.00
1:53 am 01:53 Clear 67 19.4 52 11.1 59 59 Calm 29.81 1009 10 16 0.00 0.00
2:53 am 02:53 Clear 65 18.3 52 11.1 63 63 Calm 29.81 1010 10 16 0.00 0.00
3:53 am 03:53 Clear 63 17.2 53 11.7 70 70 undefined N/A 29.81 1009 10 16 0.00 0.00
4:53 am 04:53 Clear 62 16.7 52 11.1 70 70 N 3 6 29.81 1010 10 16 0.00 0.00
5:53 am 05:53 Clear 64 17.8 52 11.1 65 65 N 3 6 29.81 1010 10 16 0.00 0.00
6:53 am 06:53 Clear 61 16.1 51 10.6 70 70 NNW 3 6 29.82 1010 10 16 0.00 0.00
7:53 am 07:53 Sunny 67 19.4 51 10.6 57 57 NNW 3 6 29.82 1010 10 16 0.00 0.00
8:53 am 08:53 Sunny 74 23.3 51 10.6 45 45 N 3 6 29.81 1010 10 16 0.00 0.00
9:53 am 09:53 Sunny 81 27.2 48 8.9 32 32 N 5 7 29.80 1009 10 16 0.00 0.00
10:53 am 10:53 Sunny 87 30.6 46 7.8 24 24 VRB 3 6 29.78 1009 10 16 0.00 0.00
11:53 am 11:53 Sunny 92 33.3 46 7.8 21 21 Calm 29.75 1008 10 16 0.00 0.00
12:53 pm 12:53 Sunny 94 34.4 43 6.1 17 17 Calm 29.73 1007 10 16 0.00 0.00
1:53 pm 13:53 Sunny 97 36.1 43 6.1 16 16 VRB 3 6 29.70 1006 10 16 0.00 0.00
2:53 pm 14:53 Sunny 98 36.7 41 5 14 14 SSW 3 6 29.67 1005 10 16 0.00 0.00
3:53 pm 15:53 Sunny 99 37.2 39 3.9 12 12 VRB 3 6 29.65 1004 10 16 0.00 0.00
4:53 pm 16:53 Sunny 100 37.8 40 4.4 13 13 S 6 9 29.64 1004 10 16 0.00 0.00
5:53 pm 17:53 Sunny 99 37.2 42 5.6 14 14 SSE 9 15 29.63 1003 10 16 0.00 0.00
6:53 pm 18:53 Sunny 93 33.9 47 8.3 21 21 SSE 9 15 29.63 1003 10 16 0.00 0.00
7:53 pm 19:53 Clear 87 30.6 47 8.3 25 25 S 3 6 29.64 1004 10 16 0.00 0.00
8:53 pm 20:53 Clear 80 26.7 49 9.4 34 34 Calm 29.65 1004 10 16 0.00 0.00
9:53 pm 21:53 Clear 76 24.4 50 10 40 40 N 5 7 29.67 1005 10 16 0.00 0.00
10:53 pm 22:53 Clear 74 23.3 48 8.9 40 40 Calm 29.68 1005 10 16 0.00 0.00
11:53 pm 23:53 Clear 71 21.7 50 10 47 47 N 3 6 29.69 1005 10 16 0.00 0.00

Powered by AerisWeather